STARLINK-3399, 51121

Orbit data source: Space-Track

STARLINK-3399, 51121 is a payload satellite owned by SpaceX/Seattle (US) in LEO that was launched on Wed, 19 Jan 2022 UTC via an FALCON 9 launch vehicle from the Air Force Eastern Test Range (AFETR). Payload-class satellites include a variety of spacecraft equipped with specific instruments for various scientific and technological missions. These include communications satellites like Starlink; space stations such as the ISS; scientific satellites like the Hubble; Earth observation satellites from companies like Planet Labs, Umbra, and HawkEye 360; GPS; miniature CubeSats for education and research; and military/defense satellites.

Loading next visibility...
Identifier
51121, 2022-005T
Orbit
LEO
Country
Flag of USUS
Related business
Manufacturer
SpaceX/Seattle
Mission
Operational Commercial Communications
Bus & Motor
STARLINK, Unknown motor
Mass
297 kg wet, ~275 kg dry
Launch date (UTC)
2022-01-19 (4 years ago)
Launch vehicle
FALCON 9
Launch site
Air Force Eastern Test Range (AFETR)
Object type
Payload
Rocket body
Debris
Shape & HBR
Box + 1 Pan, 10.1 m
Radar Cross Section
13.562 m², Large (>1 m²)

Expand to show TLE details & history
Last TLE update: 2 days ago

TLE from 2 days ago
0 STARLINK-3399
1 51121U 22005T   26171.34267260  .00000063  00000-0  22058-4 0  9996
2 51121  53.1584 188.1880 0001192  86.9675 273.1453 15.08832296244375
Epoch: 2026-06-20T08:13Z
TLE epoch observation values (Epoch: 2026-06-20T08:13:26.912Z)
Latitude
-0.00001°
Longitude
156.26719°
Altitude
540.613 km
Speed
7.593 km/s
True Right ascension
12h 32m 45s
True Declination
0° 00' 00"
Sunlit
Object was in daylight at epoch
Visualization orbit readout
Latitude
Unknown
Longitude
Unknown
Altitude
Unknown
Speed
Unknown
Apparent Right ascension
Unknown
Apparent Declination
Unknown
Sunlit
N/A
Visualization observer readout
Local Sidereal Time
21:46:00
Azimuth
Unknown
Elevation
Unknown
Doppler factor
Unknown
Orbital elements
Apogee altitude
540.846 km
Perigee altitude
539.197 km
Semi-major axis
6,918.158 km
Eccentricity
0.00012
Inclination
53.1584°
RAAN
188.188°
Arg. of periapsis
86.9675°
True anomaly
273.13166°
Mean anomaly
273.1453°
Eccentric anomaly
273.13848°
Mean motion
3.77188 °/min
Orbital period
95.44 mins
BSTAR
0.000022058
Loading maneuver chart data...
Computing Atmospheric mass density...

Documentation

Showing up to 5 results
|